This is the latest recevied weather packets stored in our database for station/object K5NAN. If no packets are shown the sender has not sent any weather packets the latest 1 day(s).
| Time | Temp. | Humidity | Pressure | Rain* | Wind** | Luminosity | Snow |
|---|---|---|---|---|---|---|---|
| 1778045190 | 15° C | 81% | 1008.3 hPa | 0 mm | 3.58 m/s, 359° | 0 W/m² | - |
| 1778044888 | 15° C | 82% | 1008.3 hPa | 0 mm | 1.79 m/s, 301° | 0 W/m² | - |
| 1778044584 | 15° C | 82% | 1008.2 hPa | 0 mm | 1.34 m/s, 274° | 0 W/m² | - |
| 1778044281 | 15.56° C | 82% | 1008.2 hPa | 0 mm | 1.79 m/s, 322° | 0 W/m² | - |
| 1778043979 | 15.56° C | 82% | 1008.2 hPa | 0 mm | 2.24 m/s, 324° | 0 W/m² | - |
| 1778043676 | 15.56° C | 82% | 1008.3 hPa | 0 mm | 2.24 m/s, 315° | 0 W/m² | - |
| 1778043373 | 15.56° C | 82% | 1008.1 hPa | 0 mm | 2.24 m/s, 301° | 0 W/m² | - |
| 1778043069 | 15.56° C | 82% | 1008.2 hPa | 0 mm | 1.79 m/s, 352° | 0 W/m² | - |
| 1778042767 | 15.56° C | 82% | 1008 hPa | 0 mm | 1.79 m/s, 305° | 0 W/m² | - |
| 1778042464 | 15.56° C | 82% | 1008.1 hPa | 0 mm | 3.13 m/s, 339° | 0 W/m² | - |
| 1778042161 | 15.56° C | 82% | 1008.1 hPa | 0 mm | 2.68 m/s, 323° | 0 W/m² | - |
| 1778041859 | 15.56° C | 82% | 1008 hPa | 0 mm | 1.34 m/s, 339° | 0 W/m² | - |
| 1778041558 | 15.56° C | 81% | 1007.9 hPa | 0 mm | 2.24 m/s, 349° | 0 W/m² | - |
| 1778041256 | 15.56° C | 82% | 1007.8 hPa | 0 mm | 2.24 m/s, 330° | 0 W/m² | - |
| 1778040954 | 15.56° C | 82% | 1007.8 hPa | 0 mm | 2.68 m/s, 357° | 0 W/m² | - |
| 1778040650 | 16.11° C | 82% | 1008.1 hPa | 0 mm | 3.13 m/s, 16° | 0 W/m² | - |
| 1778040348 | 16.11° C | 82% | 1007.9 hPa | 0 mm | 4.47 m/s, 344° | 0 W/m² | - |
| 1778040044 | 16.11° C | 82% | 1007.6 hPa | 0 mm | 3.13 m/s, 341° | 0 W/m² | - |
| 1778039742 | 16.67° C | 81% | 1007.5 hPa | 0 mm | 4.02 m/s, 315° | 0 W/m² | - |
| 1778039438 | 16.67° C | 81% | 1007.3 hPa | 0 mm | 2.68 m/s, 6° | 0 W/m² | - |
| 1778039145 | 17.22° C | 82% | 1007.6 hPa | 0 mm | 1.34 m/s, 302° | 0 W/m² | - |
| 1778038832 | 17.22° C | 81% | 1007.2 hPa | 0 mm | 1.79 m/s, 38° | 0 W/m² | - |
| 1778038530 | 17.78° C | 80% | 1007.1 hPa | 0 mm | 1.79 m/s, 24° | 0 W/m² | - |
| 1778038227 | 18.33° C | 80% | 1007 hPa | 0 mm | 2.24 m/s, 351° | 0 W/m² | - |
| 1778037924 | 18.89° C | 80% | 1006.9 hPa | 0 mm | 1.79 m/s, 14° | 0 W/m² | - |
* Rain latest hour (hover to see other rain measurements)
** Current wind speed in m/s (hover to see current wind gust speed)